Hourly Weather Roundup
Issued by NWS Central Illinois

Home | Current Version | Previous Version | Text Only | Print | Product List | Glossary On
Versions: 1 2 3 4 5 6 7 8 9 10 11 12 13 14 15 16 17 18 19 20 21 22 23 24 25 26 27 28 29 30 31 32 33 34 35 36 37 38 39 40 41 42 43 44 45 46 47 48 49 50
000
NZUS43 KILX 280210
HWRILX

AREA WEATHER ROUNDUP
NATIONAL WEATHER SERVICE, LINCOLN IL
800 PM CST FRI FEB 27 2015


CITY           SKY/WX    TMP DP  RH WIND       PRES   REMARKS
BLOOMINGTON    PTCLDY     3  -4  72 SE3       30.64S
CHAMPAIGN      MOCLDY     7  -3  64 CALM      30.64F
DECATUR        MOCLDY     5  -4  66 CALM      30.65S
FLORA          CLOUDY    13   3  63 N3        30.68S
GALESBURG      CLOUDY    -1  -6  78 CALM      30.64S
JACKSONVILLE   PTCLDY     9  -1  64 CALM      30.66R
LACON          MOCLDY    -2  -9  70 CALM      30.66S
LAWRENCEVILLE  CLOUDY    13   4  67 N7        30.68R WCI   3
LITCHFIELD     FAIR       7  -2  68 CALM      30.66R
$$


CITY           SKY/WX    TMP DP  RH WIND       PRES   REMARKS
LINCOLN        PTCLDY     9   2  75 CALM      30.69R
MACOMB         PTCLDY     2  -4  74 CALM      30.67S
MATTOON        MOCLDY     9  -1  64 CALM      30.64S
MT CARMEL AP   CLOUDY    19   7  58 CALM      30.67S
OLNEY-NOBLE AP CLOUDY    12   3  67 N3        30.68R
PARIS          MOCLDY     2  -4  75 CALM      30.66S
PEORIA         PTCLDY     9  -3  58 CALM      30.66R
PONTIAC        PTCLDY     0  -5  78 SE5       30.67R WCI -10
RANTOUL        PTCLDY     8   1  72 N6        30.64F WCI  -2
ROBINSON       MOCLDY    12   0  59 N5        30.69S WCI   4
SPRINGFIELD    PTCLDY     6  -3  66 CALM      30.66R
TAYLORVILLE    MOCLDY     9   3  78 S3        30.67R
$$

...REGIONAL REPORTS...


CITY           SKY/WX    TMP DP  RH WIND       PRES   REMARKS
CHICAGO O`HARE CLEAR      6  -6  57 SW6       30.63S WCI  -4
KANKAKEE       MOCLDY     2  -4  75 CALM      30.68R
MOLINE         MOCLDY    -4 -12  68 CALM      30.65R
MOUNT VERNON   CLOUDY    18   3  53 E7        30.66S WCI   8
PITTSFIELD     PTCLDY    11   0  60 SE3       30.66R
QUINCY         PTCLDY     9  -2  61 E3        30.64R
ROCKFORD       CLEAR      2  -7  66 SW3       30.64R
$$


CITY           SKY/WX    TMP DP  RH WIND       PRES   REMARKS
BURLINGTON     MOCLDY     2  -5  72 SE3       30.64R
CEDAR RAPIDS   MOCLDY    -4  -9  79 CALM      30.60R
DES MOINES     PTCLDY    10  -1  61 E5        30.59R WCI   2
KIRKSVILLE     PTCLDY    12   2  64 E8        30.60R WCI   0
OTTUMWA        CLEAR      4  -3  73 E5        30.61R WCI  -5
ST LOUIS       MOCLDY    16   0  49 E7        30.66R WCI   6
$$


CITY           SKY/WX    TMP DP  RH WIND       PRES   REMARKS
TERRE HAUTE    CLOUDY    11   0  61 N5        30.66S WCI   3
EVANSVILLE     CLOUDY    21   7  54 N7        30.67R WCI  12
INDIANAPOLIS   CLOUDY    13  -1  54 N3        30.63R
LAFAYETTE      PTCLDY     5  -4  66 CALM      30.67R
MADISON        CLEAR      6  -6  57 SW3       30.58R
MILWAUKEE      CLEAR      9  -6  50 SW8       30.60R WCI  -3
$$




USA.gov is the U.S. government's official web portal to all federal, state and local government web resources and services.